Regional Weather Roundup
Issued by NWS

Home | Current Version | Previous Version | Graphics & Text | Print | Product List | Glossary On
Versions: 1 2 3 4 5 6 7 8 9 10 11 12 13 14 15 16 17 18 19 20 21 22 23 24 25 26 27 28 29 30 31 32 33 34 35 36 37 38 39 40 41 42 43 44 45 46 47 48 49 50
000
ASUS45 KPSR 212210
RWRAZ

ARIZONA REGIONAL HOURLY WEATHER ROUNDUP
NATIONAL WEATHER SERVICE PHOENIX AZ
300 PM MST TUE OCT 21 2014

NOTE: FAIR INDICATES FEW OR NO CLOUDS BELOW 12,000 FEET WITH NO
SIGNIFICANT WEATHER AND/OR OBSTRUCTIONS TO VISIBILITY.

AZZ001>003-036-212300-
NORTHWEST ARIZONA

CITY           SKY/WX    TMP DP  RH WIND       PRES   REMARKS
BULLHEAD CITY  SUNNY     91  46  21 S14       29.76F
KINGMAN        SUNNY     79  42  26 SW17      29.92F
$$

AZZ004>008-015-016-018-212300-
NORTH CENTRAL ARIZONA

CITY           SKY/WX    TMP DP  RH WIND       PRES   REMARKS
GRAND CANYON   SUNNY     67  33  28 SW14      30.08F
PRESCOTT       PTSUNNY   74  39  28 W8        30.01F
FLAGSTAFF      SUNNY     64  35  34 S10G18    30.10F
PAYSON         SUNNY     70  45  40 VRB7G13   30.05S
PAGE           SUNNY     76  36  23 N5        29.93F
$$

AZZ009>014-017-212300-
NORTHEAST ARIZONA

CITY           SKY/WX    TMP DP  RH WIND       PRES   REMARKS
WINSLOW        SUNNY     75  40  28 VRB5      29.99F
SAINT JOHNS    SUNNY     70  39  32 SW7       30.03F
SHOW LOW       MOSUNNY   64  41  42 S10       30.10S
$$

AZZ023-212300-
GREATER PHOENIX AREA

CITY           SKY/WX    TMP DP  RH WIND       PRES   REMARKS
PHOENIX        MOSUNNY   88  50  27 SW8       29.80F
BUCKEYE          N/A     86  50  28 S5        29.81S
GLENDALE       MOSUNNY   88  52  29 CALM      29.82F
LUKE AFB       SUNNY     86  53  31 CALM      29.80F
DEER VALLEY    SUNNY     85  48  27 VRB5      29.82F
SCOTTSDALE     SUNNY     86  50  28 S5        29.83F
MESA-FALCON    PTSUNNY   88  48  25 W7        29.81F
MESA-GATEWAY   MOSUNNY   86  50  28 CALM      29.84F
CHANDLER       MOSUNNY   88  50  27 E6        29.81F
$$

AZZ027-028-212300-
SOUTHWEST MARICOPA COUNTY AND PINAL COUNTY

CITY           SKY/WX    TMP DP  RH WIND       PRES   REMARKS
CASA GRANDE    MOSUNNY   84  48  28 CALM      29.82F
GILA BEND      CLEAR     91  48  22 NW6       29.79F
$$

AZZ503-504-507>509-212300-
SOUTHEAST ARIZONA

CITY           SKY/WX    TMP DP  RH WIND       PRES   REMARKS
TUCSON         SUNNY     85  42  22 E3        29.88F
DAVIS-MONTHAN  SUNNY     82  42  24 VRB2      29.87F
RYAN FIELD       N/A     84  45  24 CALM      29.88F
NOGALES        SUNNY     80  41  24 MISG      29.94F
SIERRA VISTA   MOSUNNY   73  41  31 E3        30.00F
DOUGLAS        SUNNY     78  42  27 CALM      29.97S
SAFFORD        SUNNY     78  49  35 SE7       29.92F
$$

AZZ020-021-025-026-031-212300-
SOUTHWEST ARIZONA

CITY           SKY/WX    TMP DP  RH WIND       PRES   REMARKS
YUMA           MOSUNNY   94  50  22 CALM      29.74F
$$

CAZ031-033-041-043-047-048-061-212300-
SOUTHERN CALIFORNIA

CITY           SKY/WX    TMP DP  RH WIND       PRES   REMARKS
DOWNTOWN L.A.  PTSUNNY   73  61  65 VRB6      29.84F
L.A. AIRPORT   PTSUNNY   71  63  75 W14       29.86F
SAN DIEGO      MOSUNNY   74  61  63 NW9       29.86F
BURBANK        MOSUNNY   75  58  55 S9        29.84F
ONTARIO        PTSUNNY   80  50  34 SW10      29.84F
RIVERSIDE      MOSUNNY   80  54  40 CALM      29.84F
PALM SPRINGS   SUNNY     92  39  15 VRB3      29.76F
EL CENTRO NAS  MOSUNNY   94  44  17 SE5       29.72F
IMPERIAL       SUNNY     93  47  20 NE6       29.72F
BLYTHE         SUNNY     91  49  23 SE5       29.76F
NEEDLES        SUNNY     92  43  18 CALM      29.76F
$$

NVZ020-UTZ003-212300-
SOUTHERN NEVADA-UTAH

CITY           SKY/WX    TMP DP  RH WIND       PRES   REMARKS
LAS VEGAS      MOSUNNY   85  18   8 S15G28    29.76F
SALT LAKE CITY PTSUNNY   60  33  36 NW13G20   30.01S
$$

NMZ009-TXZ055-212300-
NEW MEXICO-WEST TEXAS

CITY           SKY/WX    TMP DP  RH WIND       PRES   REMARKS
ALBUQUERQUE    MOSUNNY   68  43  40 SW10      30.07F
EL PASO        PTSUNNY   73  53  49 NE5       29.99F
$$


........................KEY........................
SKY/WX - SKY CONDITION/WEATHER
TMP    - TEMPERATURE IN FAHRENHEIT
DP     - DEW POINT IN FAHRENHEIT
RH     - RELATIVE HUMIDITY IN PERCENT
WIND   - DIRECTION AND SPEED IN MILES PER HOUR (MPH)
VRB    - VARIABLE WIND DIRECTION
PRES   - MEAN SEA LEVEL PRESSURE IN INCHES OF MERCURY
         F - FALLING PRESSURE   R - RISING PRESSURE
         S - STEADY PRESSURE
VSB    - VISIBILITY IN MILES
HX     - HEAT INDEX IN FAHRENHEIT
WCI    - WIND CHILL INDEX IN FAHRENHEIT
TC     - TEMPERATURE IN CELSIUS WHICH IS ALSO KNOWN AS
         TEMPERATURE IN CENTIGRADE
AFB    - AIR FORCE BASE
         LUKE AFB IS LUKE AIR FORCE BASE
         DAVIS-MONTHAN IS DAVIS-MONTHAN AIR FORCE BASE
NAS    - NAVAL AIR STATION
         EL CENTRO NAS IS EL CENTRO NAVAL AIR STATION
N/A    - NOT AVAILABLE



USA.gov is the U.S. government's official web portal to all federal, state and local government web resources and services.